Home   Weather   Kalamazoo   Past weeks

Flag for USA Past Weather in Kalamazoo, Michigan, USA — Yesterday and Last 2 Weeks

Now
71 °F

Scattered clouds.


Feels Like: 77 °F
Forecast: 56 / 77 °F
Wind: 7 mph from Southeast

Location: Kalamazoo / Battle Creek International Airport

Current Time: Sep 25, 2016 at 1:25:53 PM

Latest Report: Sep 25, 2016 at 12:53 PM


Visibility: 10 mi

Pressure: 30.14 "Hg

Humidity: 49%

Dew Point: 51 °F

Location of KalamazooLocation

Past Weather in Kalamazoo — Graph

°F

Kalamazoo Temperature Yesterday

Maximum temperature yesterday: 73 °F (at 5:53 PM)
Minimum temperature yesterday: 55 °F (at 4:53 AM)
Average temperature yesterday: 63 °F

High & Low Weather Summary for the Past Weeks

 TemperatureHumidityPressure
High83 °F (Sep 19, 3:53 PM)100% (Sep 11, 5:53 AM)30.30 "Hg (Sep 11, 5:53 AM)
Low54 °F (Sep 11, 5:53 AM)32% (Sep 20, 3:53 PM)29.77 "Hg (Sep 10, 11:53 AM)
Average68 °F73%30.09 "Hg
* Reported Sep 10 11:53 AM — Sep 25 11:53 AM, Kalamazoo, Weather by CustomWeather, © 2016

Note: Actual official high and low records may vary slightly from our data, if they occured in-between our weather recording intervals... More about our weather records

Advertising

Kalamazoo Weather History for the Previous 24 Hours

Scroll right to see more
 ConditionsComfort  
Time TempWeatherWind HumidityBarometerVisibility
11:53 AM
Sun, Sep 25
68 °FSunny.7 mph55%30.15 "Hg10 mi
10:53 AM63 °FOvercast.8 mph65%30.17 "Hg10 mi
9:53 AM60 °FOvercast.6 mph69%30.17 "Hg10 mi
8:53 AM58 °FOvercast.6 mph78%30.19 "Hg10 mi
7:53 AM55 °FSunny.No wind87%30.18 "Hg7 mi
6:53 AM55 °FClear.No wind87%30.18 "Hg9 mi
5:53 AM56 °FClear.3 mph87%30.17 "Hg10 mi
4:53 AM56 °FClear.No wind87%30.18 "Hg10 mi
3:53 AM56 °FClear.No wind87%30.18 "Hg10 mi
2:53 AM58 °FClear.No wind81%30.19 "Hg10 mi
1:53 AM57 °FClear.No wind83%30.19 "Hg10 mi
12:53 AM58 °FClear.No wind81%30.20 "Hg10 mi
11:53 PM
Sat, Sep 24
60 °FClear.3 mph75%30.19 "Hg10 mi
10:53 PM61 °FClear.5 mph75%30.19 "Hg10 mi
9:53 PM63 °FClear.3 mph73%30.19 "Hg10 mi
8:53 PM64 °FClear.3 mph75%30.18 "Hg10 mi
7:53 PM67 °FClear.3 mph68%30.17 "Hg10 mi
6:53 PM71 °FSunny.3 mph59%30.18 "Hg10 mi
5:53 PM73 °FSunny.No wind55%30.18 "Hg10 mi
4:53 PM72 °FSunny.3 mph57%30.18 "Hg10 mi
3:53 PM71 °FScattered clouds.7 mph59%30.19 "Hg10 mi
2:53 PM72 °FPassing clouds.6 mph57%30.20 "Hg10 mi
1:53 PM68 °FOvercast.3 mph63%30.23 "Hg10 mi
Weather by CustomWeather, © 2016

See weather overviewHow to use our weather pages